CARTOSAT-2E

Last updated on Tue Sep 16 2025 00:02:31 GMT+0000 (Coordinated Universal Time)

1 42767U 17036C 25258.65482994 .00005404 00000+0 25984-3 0 9995 2 42767 97.4690 317.3183 0003170 172.4248 187.7035 15.19216516456461

Satellite not in orbit